EW0499 Weather Reports


time (UTC)temp
C
wind
direction
speed
KPH
gust
KPH
rain 1hr
cm
rain 24hr
cm
rain mn
cm
humidity
%
barometer
mb
20260507144604 13 101 3.2 9.7 0.00 0.00 0.00 34 1013.1
20260507144404 12 80 6.4 9.7 0.00 0.00 0.00 33 1013.1
20260507144204 12 132 3.2 9.7 0.00 0.00 0.00 34 1013.1
20260507144004 12 102 6.4 9.7 0.00 0.00 0.00 33 1013.2
20260507143804 12 131 3.2 9.7 0.00 0.00 0.00 35 1013.1
20260507143604 12 114 1.6 9.7 0.00 0.00 0.00 35 1013.1
20260507143404 12 104 4.8 9.7 0.00 0.00 0.00 36 1013.1
20260507143204 12 125 3.2 9.7 0.00 0.00 0.00 37 1013.0
20260507143004 12 119 4.8 9.7 0.00 0.00 0.00 37 1013.1
20260507142804 12 112 3.2 6.4 0.00 0.00 0.00 38 1013.0
20260507142604 12 102 3.2 6.4 0.00 0.00 0.00 38 1013.0
20260507142404 12 122 3.2 6.4 0.00 0.00 0.00 39 1013.1
20260507142203 12 64 1.6 6.4 0.00 0.00 0.00 38 1013.1
20260507142004 12 60 3.2 6.4 0.00 0.00 0.00 37 1013.0
20260507141804 12 69 3.2 6.4 0.00 0.00 0.00 36 1013.0
20260507141603 12 92 3.2 6.4 0.00 0.00 0.00 37 1013.0
20260507141404 12 69 1.6 6.4 0.00 0.00 0.00 37 1013.0
20260507141203 12 83 1.6 6.4 0.00 0.00 0.00 38 1013.0
20260507141006 12 84 3.2 6.4 0.00 0.00 0.00 37 1013.0
20260507140804 11 63 1.6 6.4 0.00 0.00 0.00 37 1013.1
20260507140603 11 59 3.2 6.4 0.00 0.00 0.00 37 1013.0
20260507140404 11 87 1.6 4.8 0.00 0.00 0.00 39 1013.0
20260507140203 11 67 1.6 4.8 0.00 0.00 0.00 39 1013.0
20260507140004 11 75 3.2 4.8 0.00 0.00 0.00 40 1012.9
20260507135804 11 102 3.2 4.8 0.00 0.00 0.00 40 1012.8
20260507135604 11 101 3.2 4.8 0.00 0.00 0.00 40 1012.8
20260507135403 11 90 3.2 4.8 0.00 0.00 0.00 41 1012.8
20260507135203 11 83 3.2 4.8 0.00 0.00 0.00 41 1012.7
20260507135003 10 92 3.2 4.8 0.00 0.00 0.00 41 1012.7
20260507134803 10 0 0.0 0.0 0.00 0.00 0.00 43 1012.8
20260507134604 10 0 0.0 0.0 0.00 0.00 0.00 43 1012.8
20260507134404 10 0 0.0 0.0 0.00 0.00 0.00 43 1012.8
20260507134204 10 0 0.0 0.0 0.00 0.00 0.00 44 1012.8
20260507134004 9 0 0.0 0.0 0.00 0.00 0.00 44 1012.7
20260507133804 9 0 0.0 0.0 0.00 0.00 0.00 44 1012.8
20260507133607 8 0 0.0 0.0 0.00 0.00 0.00 43 1012.9
20260507133404 8 0 0.0 0.0 0.00 0.00 0.00 43 1012.8
20260507133204 8 0 0.0 0.0 0.00 0.00 0.00 43 1012.7
20260507133004 8 0 0.0 0.0 0.00 0.00 0.00 44 1012.7
20260507132804 8 0 0.0 0.0 0.00 0.00 0.00 42 1012.7
20260507132604 8 0 0.0 0.0 0.00 0.00 0.00 44 1012.7
20260507132404 7 0 0.0 0.0 0.00 0.00 0.00 44 1012.7
20260507132203 7 0 0.0 0.0 0.00 0.00 0.00 45 1012.7
20260507132004 7 0 0.0 0.0 0.00 0.00 0.00 47 1012.7
20260507131825 7 0 0.0 0.0 0.00 0.00 0.00 47 1012.7
20260507131625 7 0 0.0 0.0 0.00 0.00 0.00 48 1012.7
20260507131425 7 0 0.0 0.0 0.00 0.00 0.00 48 1012.7
20260507131204 6 0 0.0 0.0 0.00 0.00 0.00 48 1012.7
20260507131003 6 0 0.0 0.0 0.00 0.00 0.00 50 1012.6
20260507130805 6 0 0.0 0.0 0.00 0.00 0.00 51 1012.7
20260507130604 6 0 0.0 0.0 0.00 0.00 0.00 51 1012.5
20260507130404 6 0 0.0 0.0 0.00 0.00 0.00 51 1012.5
20260507130204 5 0 0.0 0.0 0.00 0.00 0.00 51 1012.5
20260507130004 5 0 0.0 0.0 0.00 0.00 0.00 51 1012.5
20260507125803 5 0 0.0 0.0 0.00 0.00 0.00 52 1012.4
20260507125604 5 0 0.0 0.0 0.00 0.00 0.00 52 1012.4
20260507125404 5 0 0.0 0.0 0.00 0.00 0.00 53 1012.4
20260507125204 4 0 0.0 0.0 0.00 0.00 0.00 51 1012.4
20260507125004 4 0 0.0 0.0 0.00 0.00 0.00 53 1012.4
20260507124803 4 0 0.0 0.0 0.00 0.00 0.00 53 1012.2
20260507124604 3 0 0.0 0.0 0.00 0.00 0.00 54 1012.2
20260507124403 3 0 0.0 0.0 0.00 0.00 0.00 56 1012.2
20260507124204 3 0 0.0 0.0 0.00 0.00 0.00 55 1012.2
20260507124004 3 0 0.0 0.0 0.00 0.00 0.00 55 1012.2
20260507123804 2 0 0.0 0.0 0.00 0.00 0.00 57 1012.3
20260507123604 2 0 0.0 0.0 0.00 0.00 0.00 57 1012.2
20260507123404 2 0 0.0 0.0 0.00 0.00 0.00 57 1012.3
20260507123204 2 0 0.0 0.0 0.00 0.00 0.00 58 1012.2
20260507123004 2 0 0.0 0.0 0.00 0.00 0.00 58 1012.2
20260507122804 2 0 0.0 0.0 0.00 0.00 0.00 59 1012.2
20260507122604 1 0 0.0 0.0 0.00 0.00 0.00 58 1012.2
20260507122404 1 0 0.0 0.0 0.00 0.00 0.00 58 1012.2
20260507122203 1 0 0.0 0.0 0.00 0.00 0.00 58 1012.2
20260507122005 1 0 0.0 0.0 0.00 0.00 0.00 58 1012.2
20260507121804 1 0 0.0 0.0 0.00 0.00 0.00 60 1012.1
20260507121603 1 0 0.0 0.0 0.00 0.00 0.00 59 1012.0
20260507121404 1 0 0.0 0.0 0.00 0.00 0.00 59 1012.0
20260507121204 1 0 0.0 0.0 0.00 0.00 0.00 59 1012.0
20260507121004 1 0 0.0 0.0 0.00 0.00 0.00 59 1012.0
20260507120804 0 0 0.0 0.0 0.00 0.00 0.00 58 1012.0
20260507120604 0 0 0.0 0.0 0.00 0.00 0.00 58 1012.0
20260507120403 0 0 0.0 0.0 0.00 0.00 0.00 58 1012.0
20260507120204 0 0 0.0 0.0 0.00 0.00 0.00 58 1012.0
20260507120005 0 0 0.0 0.0 0.00 0.00 0.00 58 1012.0
20260507115803 0 0 0.0 0.0 0.00 0.00 0.00 58 1011.9
20260507115604 0 0 0.0 0.0 0.00 0.00 0.00 58 1011.9
20260507115404 0 0 0.0 0.0 0.00 0.00 0.00 58 1011.9
20260507115204 0 0 0.0 0.0 0.00 0.00 0.00 58 1011.9
20260507115007 0 0 0.0 0.0 0.00 0.00 0.00 57 1011.9
20260507114804 0 0 0.0 0.0 0.00 0.00 0.00 57 1011.8
20260507114604 0 0 0.0 0.0 0.00 0.00 0.00 57 1011.9
20260507114404 0 0 0.0 0.0 0.00 0.00 0.00 57 1011.9
20260507114204 0 0 0.0 0.0 0.00 0.00 0.00 57 1011.8
20260507114004 0 0 0.0 0.0 0.00 0.00 0.00 57 1011.8
20260507113804 0 0 0.0 0.0 0.00 0.00 0.00 57 1011.8
20260507113604 0 0 0.0 0.0 0.00 0.00 0.00 58 1011.8
20260507113404 0 0 0.0 0.0 0.00 0.00 0.00 58 1011.7
20260507113204 0 0 0.0 0.0 0.00 0.00 0.00 58 1011.7
20260507113007 0 0 0.0 0.0 0.00 0.00 0.00 58 1011.7
20260507112804 0 0 0.0 0.0 0.00 0.00 0.00 58 1011.6
20260507112603 0 0 0.0 0.0 0.00 0.00 0.00 58 1011.6
20260507112404 0 0 0.0 0.0 0.00 0.00 0.00 58 1011.7
20260507112204 0 0 0.0 0.0 0.00 0.00 0.00 59 1011.6
20260507112004 0 0 0.0 0.0 0.00 0.00 0.00 58 1011.6
20260507111804 0 0 0.0 0.0 0.00 0.00 0.00 59 1011.6
20260507111603 0 0 0.0 0.0 0.00 0.00 0.00 59 1011.6
20260507111404 0 0 0.0 0.0 0.00 0.00 0.00 59 1011.6
20260507111204 0 0 0.0 0.0 0.00 0.00 0.00 59 1011.6
20260507111004 0 0 0.0 0.0 0.00 0.00 0.00 59 1011.6
20260507110805 0 0 0.0 0.0 0.00 0.00 0.00 58 1011.5
20260507110604 0 0 0.0 0.0 0.00 0.00 0.00 58 1011.5
20260507110403 0 0 0.0 0.0 0.00 0.00 0.00 58 1011.5
20260507110204 0 0 0.0 0.0 0.00 0.00 0.00 58 1011.5
20260507110007 0 0 0.0 0.0 0.00 0.00 0.00 58 1011.4
20260507105803 0 0 0.0 0.0 0.00 0.00 0.00 57 1011.4
20260507105604 0 0 0.0 0.0 0.00 0.00 0.00 57 1011.4
20260507105404 0 0 0.0 0.0 0.00 0.00 0.00 57 1011.4
20260507105204 0 0 0.0 0.0 0.00 0.00 0.00 57 1011.4
20260507105004 0 0 0.0 0.0 0.00 0.00 0.00 57 1011.3
20260507104804 0 0 0.0 0.0 0.00 0.00 0.00 57 1011.3
20260507104604 0 0 0.0 0.0 0.00 0.00 0.00 56 1011.3
20260507104404 0 0 0.0 0.0 0.00 0.00 0.00 56 1011.3
20260507104204 0 0 0.0 0.0 0.00 0.00 0.00 56 1011.2
20260507104004 0 0 0.0 0.0 0.00 0.00 0.00 56 1011.3
20260507103804 0 0 0.0 0.0 0.00 0.00 0.00 57 1011.2
20260507103604 0 0 0.0 0.0 0.00 0.00 0.00 56 1011.2
20260507103403 0 0 0.0 0.0 0.00 0.00 0.00 56 1011.2
20260507103204 0 0 0.0 0.0 0.00 0.00 0.00 56 1011.1
20260507103004 0 0 0.0 0.0 0.00 0.00 0.00 56 1011.1
20260507102804 0 0 0.0 0.0 0.00 0.00 0.00 56 1011.1
20260507102604 0 0 0.0 0.0 0.00 0.00 0.00 57 1011.1
20260507102425 0 0 0.0 0.0 0.00 0.00 0.00 57 1011.1
20260507102225 0 0 0.0 0.0 0.00 0.00 0.00 56 1011.1
20260507102025 0 0 0.0 0.0 0.00 0.00 0.00 56 1011.1
20260507101804 0 0 0.0 0.0 0.00 0.00 0.00 56 1011.1
20260507101604 0 0 0.0 0.0 0.00 0.00 0.00 56 1011.1
20260507101404 0 0 0.0 0.0 0.00 0.00 0.00 56 1011.1
20260507101204 0 0 0.0 0.0 0.00 0.00 0.00 56 1011.1
20260507101004 0 0 0.0 0.0 0.00 0.00 0.00 56 1011.2
20260507100804 0 0 0.0 0.0 0.00 0.00 0.00 56 1011.2
20260507100604 0 0 0.0 0.0 0.00 0.00 0.00 56 1011.2
20260507100404 0 0 0.0 0.0 0.00 0.00 0.00 56 1011.2
20260507100204 0 0 0.0 0.0 0.00 0.00 0.00 56 1011.2
20260507100004 0 0 0.0 0.0 0.00 0.00 0.00 56 1011.2
20260507095804 0 0 0.0 0.0 0.00 0.00 0.00 55 1011.3
20260507095604 0 0 0.0 0.0 0.00 0.00 0.00 55 1011.1
20260507095404 0 0 0.0 0.0 0.00 0.00 0.00 55 1011.1
20260507095203 0 0 0.0 0.0 0.00 0.00 0.00 55 1011.2
20260507095004 0 0 0.0 0.0 0.00 0.00 0.00 55 1011.2
20260507094804 0 0 0.0 0.0 0.00 0.00 0.00 55 1011.2
20260507094604 1 0 0.0 0.0 0.00 0.00 0.00 55 1011.2
20260507094404 1 0 0.0 0.0 0.00 0.00 0.00 55 1011.2
20260507094204 1 0 0.0 0.0 0.00 0.00 0.00 56 1011.2
20260507094004 1 0 0.0 0.0 0.00 0.00 0.00 56 1011.3
20260507093803 1 0 0.0 0.0 0.00 0.00 0.00 56 1011.3
20260507093604 1 0 0.0 0.0 0.00 0.00 0.00 55 1011.2
20260507093404 1 0 0.0 0.0 0.00 0.00 0.00 55 1011.2
20260507093204 1 0 0.0 0.0 0.00 0.00 0.00 56 1011.2
20260507093004 1 0 0.0 0.0 0.00 0.00 0.00 55 1011.2
20260507092804 1 0 0.0 0.0 0.00 0.00 0.00 55 1011.1
20260507092604 1 0 0.0 0.0 0.00 0.00 0.00 55 1011.1
20260507092404 1 0 0.0 0.0 0.00 0.00 0.00 55 1011.2
20260507092204 1 0 0.0 0.0 0.00 0.00 0.00 55 1011.1
20260507092004 1 0 0.0 0.0 0.00 0.00 0.00 55 1011.1
20260507091804 1 0 0.0 0.0 0.00 0.00 0.00 55 1011.1
20260507091604 1 0 0.0 0.0 0.00 0.00 0.00 55 1011.0
20260507091404 1 0 0.0 0.0 0.00 0.00 0.00 55 1011.0
20260507091204 1 0 0.0 0.0 0.00 0.00 0.00 55 1011.1
20260507091004 1 0 0.0 0.0 0.00 0.00 0.00 55 1011.1
20260507090805 1 0 0.0 0.0 0.00 0.00 0.00 55 1011.1
20260507090604 1 0 0.0 0.0 0.00 0.00 0.00 55 1011.1
20260507090403 1 0 0.0 0.0 0.00 0.00 0.00 55 1011.1
20260507090204 1 0 0.0 0.0 0.00 0.00 0.00 54 1011.0
20260507090005 1 0 0.0 0.0 0.00 0.00 0.00 55 1011.0
20260507085804 1 0 0.0 0.0 0.00 0.00 0.00 55 1011.0
20260507085604 1 0 0.0 0.0 0.00 0.00 0.00 55 1011.0
20260507085403 1 0 0.0 0.0 0.00 0.00 0.00 54 1011.0
20260507085204 1 0 0.0 0.0 0.00 0.00 0.00 54 1011.0
20260507085003 1 0 0.0 0.0 0.00 0.00 0.00 54 1011.0
20260507084825 1 0 0.0 0.0 0.00 0.00 0.00 54 1011.0
20260507084624 1 0 0.0 0.0 0.00 0.00 0.00 54 1011.0
20260507084425 1 0 0.0 0.0 0.00 0.00 0.00 55 1011.0
20260507084204 1 0 0.0 0.0 0.00 0.00 0.00 54 1011.0
20260507084004 1 0 0.0 0.0 0.00 0.00 0.00 54 1011.0
20260507083804 1 0 0.0 0.0 0.00 0.00 0.00 54 1011.0
20260507083604 1 0 0.0 0.0 0.00 0.00 0.00 54 1011.0
20260507083404 1 0 0.0 0.0 0.00 0.00 0.00 54 1011.0
20260507083204 1 0 0.0 0.0 0.00 0.00 0.00 54 1011.0
20260507083004 1 0 0.0 0.0 0.00 0.00 0.00 54 1011.1
20260507082804 1 0 0.0 0.0 0.00 0.00 0.00 54 1011.0
20260507082604 1 0 0.0 0.0 0.00 0.00 0.00 54 1011.0
20260507082425 1 0 0.0 0.0 0.00 0.00 0.00 54 1011.0
20260507082225 1 0 0.0 0.0 0.00 0.00 0.00 54 1011.1
20260507082025 1 0 0.0 0.0 0.00 0.00 0.00 54 1011.0
20260507081804 1 0 0.0 0.0 0.00 0.00 0.00 53 1011.0
20260507081604 1 0 0.0 1.6 0.00 0.00 0.00 53 1011.0
20260507081404 1 0 0.0 4.8 0.00 0.00 0.00 53 1011.0
20260507081225 1 0 0.0 4.8 0.00 0.00 0.00 53 1011.0
20260507081025 1 0 0.0 4.8 0.00 0.00 0.00 52 1011.1
20260507080825 1 246 0.0 4.8 0.00 0.00 0.00 53 1011.1
20260507080604 1 246 1.6 4.8 0.00 0.00 0.00 53 1011.1
20260507080405 1 247 3.2 3.2 0.00 0.00 0.00 53 1011.1
20260507080203 1 247 0.0 3.2 0.00 0.00 0.00 53 1011.2
20260507080004 1 0 0.0 0.0 0.00 0.00 0.00 53 1011.3
20260507075803 1 0 0.0 0.0 0.00 0.00 0.00 53 1011.2
20260507075603 1 0 0.0 1.6 0.00 0.00 0.00 53 1011.2
20260507075404 1 0 0.0 1.6 0.00 0.00 0.00 53 1011.3
20260507075203 1 0 0.0 1.6 0.00 0.00 0.00 53 1011.3
20260507075004 1 0 0.0 1.6 0.00 0.00 0.00 52 1011.3
20260507074804 1 247 0.0 3.2 0.00 0.00 0.00 52 1011.3
20260507074604 1 0 0.0 3.2 0.00 0.00 0.00 52 1011.3
20260507074404 1 246 0.0 3.2 0.00 0.00 0.00 52 1011.4
20260507074204 1 247 0.0 3.2 0.00 0.00 0.00 52 1011.4
20260507074003 1 247 1.6 3.2 0.00 0.00 0.00 52 1011.4
20260507073804 1 247 1.6 3.2 0.00 0.00 0.00 52 1011.4
20260507073603 1 247 1.6 3.2 0.00 0.00 0.00 52 1011.4
20260507073404 1 247 1.6 3.2 0.00 0.00 0.00 52 1011.4
20260507073204 2 247 1.6 3.2 0.00 0.00 0.00 52 1011.4
20260507073004 2 247 0.0 3.2 0.00 0.00 0.00 52 1011.4
20260507072804 2 0 0.0 3.2 0.00 0.00 0.00 52 1011.4
20260507072604 2 0 0.0 3.2 0.00 0.00 0.00 52 1011.4
20260507072425 2 0 0.0 3.2 0.00 0.00 0.00 52 1011.4
20260507072225 2 247 1.6 3.2 0.00 0.00 0.00 52 1011.4
20260507072025 2 247 1.6 3.2 0.00 0.00 0.00 52 1011.4
20260507071804 2 247 1.6 3.2 0.00 0.00 0.00 52 1011.4
20260507071604 2 247 0.0 1.6 0.00 0.00 0.00 51 1011.4
20260507071403 2 247 0.0 1.6 0.00 0.00 0.00 51 1011.4
20260507071225 2 247 0.0 1.6 0.00 0.00 0.00 51 1011.4
20260507071025 2 0 0.0 1.6 0.00 0.00 0.00 51 1011.4
20260507070825 2 247 0.0 1.6 0.00 0.00 0.00 51 1011.4
20260507070604 2 247 0.0 1.6 0.00 0.00 0.00 51 1011.4
20260507070404 2 247 0.0 3.2 0.00 0.00 0.00 51 1011.3
20260507070203 2 0 0.0 3.2 0.00 0.00 0.00 51 1011.3
20260507070025 2 247 0.0 3.2 0.00 0.00 0.00 51 1011.4
20260507065824 2 247 1.6 4.8 0.00 0.00 0.00 51 1011.4
20260507065625 2 247 1.6 4.8 0.00 0.00 0.00 50 1011.4
20260507065404 2 238 1.6 4.8 0.00 0.00 0.00 50 1011.5
20260507065204 2 226 1.6 4.8 0.00 0.00 0.00 50 1011.5
20260507065004 2 198 3.2 4.8 0.00 0.00 0.00 50 1011.5
20260507064804 2 0 0.0 0.0 0.00 0.00 0.00 50 1011.5
20260507064604 2 0 0.0 0.0 0.00 0.00 0.00 50 1011.4
20260507064404 2 0 0.0 0.0 0.00 0.00 0.00 49 1011.4
20260507064204 2 0 0.0 0.0 0.00 0.00 0.00 49 1011.4
20260507064004 2 0 0.0 0.0 0.00 0.00 0.00 49 1011.5
20260507063805 2 0 0.0 0.0 0.00 0.00 0.00 49 1011.5
20260507063604 2 0 0.0 0.0 0.00 0.00 0.00 49 1011.5
20260507063403 2 0 0.0 0.0 0.00 0.00 0.00 49 1011.6
20260507063204 2 0 0.0 0.0 0.00 0.00 0.00 49 1011.5
20260507063004 2 0 0.0 1.6 0.00 0.00 0.00 49 1011.6
20260507062804 2 0 0.0 1.6 0.00 0.00 0.00 49 1011.5
20260507062604 2 0 0.0 3.2 0.00 0.00 0.00 49 1011.6
20260507062403 2 0 0.0 4.8 0.00 0.00 0.00 49 1011.6
20260507062204 2 184 0.0 4.8 0.00 0.00 0.00 49 1011.7
20260507062004 2 0 0.0 4.8 0.00 0.00 0.00 49 1011.6
20260507061824 2 184 0.0 4.8 0.00 0.00 0.00 48 1011.6
20260507061625 3 183 1.6 4.8 0.00 0.00 0.00 48 1011.7
20260507061425 3 171 0.0 4.8 0.00 0.00 0.00 48 1011.7
20260507061204 3 180 1.6 3.2 0.00 0.00 0.00 48 1011.7
20260507061004 3 208 1.6 3.2 0.00 0.00 0.00 48 1011.8
20260507060804 3 0 0.0 3.2 0.00 0.00 0.00 48 1011.8
20260507060624 3 208 0.0 3.2 0.00 0.00 0.00 48 1011.7
20260507060425 3 208 0.0 3.2 0.00 0.00 0.00 48 1011.7
20260507060225 3 208 0.0 3.2 0.00 0.00 0.00 48 1011.7
20260507060004 3 208 1.6 3.2 0.00 0.00 0.00 48 1011.7
20260507055804 3 208 0.0 3.2 0.00 0.00 0.00 48 1011.8
20260507055604 3 208 0.0 3.2 0.00 0.00 0.00 47 1011.8
20260507055404 3 208 0.0 3.2 0.00 0.00 0.00 47 1011.8
20260507055204 3 208 0.0 3.2 0.00 0.00 0.00 47 1011.8
20260507055004 3 212 1.6 4.8 0.00 0.00 0.00 47 1011.8
20260507054804 3 212 1.6 4.8 0.00 0.00 0.00 47 1011.7
20260507054603 3 209 1.6 4.8 0.00 0.00 0.00 47 1011.7
20260507054404 3 209 1.6 4.8 0.00 0.00 0.00 46 1011.7
20260507054204 3 204 3.2 4.8 0.00 0.00 0.00 46 1011.7
20260507054004 3 202 1.6 3.2 0.00 0.00 0.00 46 1011.7
20260507053804 3 201 1.6 3.2 0.00 0.00 0.00 46 1011.8
20260507053604 3 194 1.6 3.2 0.00 0.00 0.00 46 1011.8
20260507053404 3 162 1.6 3.2 0.00 0.00 0.00 45 1011.7
20260507053204 3 148 1.6 3.2 0.00 0.00 0.00 45 1011.7
20260507053004 4 0 0.0 3.2 0.00 0.00 0.00 44 1011.7
20260507052804 4 124 0.0 3.2 0.00 0.00 0.00 45 1011.8
20260507052604 4 113 0.0 3.2 0.00 0.00 0.00 44 1011.8
20260507052404 4 113 1.6 3.2 0.00 0.00 0.00 44 1011.8
20260507052204 4 113 1.6 6.4 0.00 0.00 0.00 44 1011.9
20260507052004 4 113 1.6 6.4 0.00 0.00 0.00 44 1011.9
20260507051803 4 0 0.0 6.4 0.00 0.00 0.00 44 1011.9
20260507051604 4 113 1.6 6.4 0.00 0.00 0.00 44 1011.9
20260507051404 4 121 3.2 6.4 0.00 0.00 0.00 44 1011.9
20260507051204 4 139 3.2 6.4 0.00 0.00 0.00 43 1011.9
20260507051004 4 166 0.0 6.4 0.00 0.00 0.00 43 1011.9
20260507050804 4 151 0.0 6.4 0.00 0.00 0.00 43 1011.8
20260507050604 4 142 3.2 6.4 0.00 0.00 0.00 43 1011.8
20260507050404 5 161 4.8 6.4 0.00 0.00 0.00 43 1011.9
20260507050204 5 183 3.2 4.8 0.00 0.00 0.00 43 1011.8
20260507050005 5 200 3.2 4.8 0.00 0.00 0.00 43 1011.9
20260507045803 5 206 1.6 4.8 0.00 0.00 0.00 43 1011.9
20260507045605 5 206 1.6 6.4 0.00 0.00 0.00 43 1011.9
20260507045425 5 227 3.2 17.7 0.00 0.00 0.00 43 1011.9
20260507045225 5 311 0.0 17.7 0.00 0.00 0.00 42 1011.9
20260507045025 5 327 1.6 17.7 0.00 0.00 0.00 42 1012.0
20260507044804 6 351 3.2 17.7 0.00 0.00 0.00 41 1012.0
20260507044604 6 345 4.8 17.7 0.00 0.00 0.00 41 1012.0
20260507044403 6 326 3.2 17.7 0.00 0.00 0.00 41 1012.0
20260507044203 6 357 4.8 17.7 0.00 0.00 0.00 41 1012.1
20260507044004 5 337 6.4 17.7 0.00 0.00 0.00 41 1012.1
20260507043804 5 307 6.4 17.7 0.00 0.00 0.00 41 1012.1
20260507043604 5 259 8.0 17.7 0.00 0.00 0.00 41 1012.1
20260507043404 5 263 8.0 17.7 0.00 0.00 0.00 43 1012.1
20260507043204 4 264 8.0 14.5 0.00 0.00 0.00 44 1012.2
20260507043025 4 272 3.2 14.5 0.00 0.00 0.00 45 1012.2
20260507042825 4 0 0.0 3.2 0.00 0.00 0.00 46 1012.3
20260507042624 4 30 0.0 6.4 0.00 0.00 0.00 46 1012.2
20260507042403 5 31 1.6 6.4 0.00 0.00 0.00 46 1012.2
20260507042204 5 42 0.0 6.4 0.00 0.00 0.00 45 1012.2
20260507042004 5 42 1.6 6.4 0.00 0.00 0.00 44 1012.1
20260507041804 5 43 1.6 6.4 0.00 0.00 0.00 45 1012.4
20260507041604 5 44 1.6 6.4 0.00 0.00 0.00 45 1012.4
20260507041404 5 43 3.2 8.0 0.00 0.00 0.00 45 1012.4
20260507041225 5 215 1.6 8.0 0.00 0.00 0.00 44 1012.5
20260507041025 5 217 3.2 8.0 0.00 0.00 0.00 44 1012.4
20260507040825 5 217 4.8 8.0 0.00 0.00 0.00 45 1012.4
20260507040604 5 222 4.8 8.0 0.00 0.00 0.00 45 1012.4
20260507040404 5 255 3.2 6.4 0.00 0.00 0.00 44 1012.6
20260507040204 5 288 3.2 6.4 0.00 0.00 0.00 45 1012.6
20260507040004 5 290 1.6 6.4 0.00 0.00 0.00 45 1012.6
20260507035804 5 296 3.2 6.4 0.00 0.00 0.00 44 1012.6
20260507035604 6 299 3.2 6.4 0.00 0.00 0.00 45 1012.6
20260507035404 6 250 1.6 4.8 0.00 0.00 0.00 45 1012.6
20260507035204 6 250 3.2 4.8 0.00 0.00 0.00 44 1012.6
20260507035004 6 245 3.2 4.8 0.00 0.00 0.00 45 1012.6
20260507034804 6 242 0.0 3.2 0.00 0.00 0.00 44 1012.7
20260507034604 6 242 1.6 3.2 0.00 0.00 0.00 43 1012.8
20260507034404 6 242 1.6 3.2 0.00 0.00 0.00 43 1012.7
20260507034204 6 242 1.6 3.2 0.00 0.00 0.00 43 1012.7
20260507034004 6 242 1.6 3.2 0.00 0.00 0.00 42 1012.7
20260507033804 7 242 1.6 4.8 0.00 0.00 0.00 42 1012.8
20260507033604 7 242 1.6 4.8 0.00 0.00 0.00 43 1012.8
20260507033404 7 242 0.0 4.8 0.00 0.00 0.00 42 1012.8
20260507033204 7 242 1.6 4.8 0.00 0.00 0.00 41 1012.8
20260507033004 7 242 3.2 4.8 0.00 0.00 0.00 41 1012.9
20260507032804 7 241 3.2 8.0 0.00 0.00 0.00 41 1012.9
20260507032604 7 197 1.6 9.7 0.00 0.00 0.00 39 1013.0
20260507032425 7 178 1.6 9.7 0.00 0.00 0.00 40 1013.0
20260507032225 7 122 1.6 9.7 0.00 0.00 0.00 40 1013.1
20260507032027 7 116 4.8 9.7 0.00 0.00 0.00 39 1013.1
20260507031804 7 152 6.4 9.7 0.00 0.00 0.00 39 1013.0
20260507031604 7 145 4.8 8.0 0.00 0.00 0.00 38 1013.1
20260507031404 7 184 1.6 8.0 0.00 0.00 0.00 40 1013.1
20260507031204 7 208 4.8 8.0 0.00 0.00 0.00 40 1013.1
20260507031004 7 208 3.2 6.4 0.00 0.00 0.00 40 1013.0
20260507030804 7 222 3.2 6.4 0.00 0.00 0.00 40 1013.1
20260507030625 7 200 1.6 6.4 0.00 0.00 0.00 40 1013.1
20260507030425 7 199 1.6 6.4 0.00 0.00 0.00 40 1013.1
20260507030225 7 205 3.2 6.4 0.00 0.00 0.00 40 1013.2
20260507030004 7 222 3.2 6.4 0.00 0.00 0.00 40 1013.1
20260507025804 7 205 1.6 6.4 0.00 0.00 0.00 40 1013.2
20260507025604 7 205 1.6 6.4 0.00 0.00 0.00 41 1013.2
20260507025403 7 210 3.2 6.4 0.00 0.00 0.00 41 1013.2
20260507025204 7 192 3.2 6.4 0.00 0.00 0.00 41 1013.2
20260507025004 7 194 1.6 6.4 0.00 0.00 0.00 42 1013.3
20260507024804 7 189 3.2 6.4 0.00 0.00 0.00 42 1013.3
20260507024604 7 198 3.2 6.4 0.00 0.00 0.00 42 1013.3
20260507024404 7 158 3.2 6.4 0.00 0.00 0.00 41 1013.3
20260507024204 7 0 0.0 0.0 0.00 0.00 0.00 43 1013.3
20260507024005 7 0 0.0 0.0 0.00 0.00 0.00 44 1013.3
20260507023807 7 0 0.0 0.0 0.00 0.00 0.00 44 1013.3
20260507023603 7 0 0.0 0.0 0.00 0.00 0.00 44 1013.3
20260507023404 7 0 0.0 0.0 0.00 0.00 0.00 43 1013.3
20260507023204 7 0 0.0 0.0 0.00 0.00 0.00 43 1013.3
20260507023004 7 0 0.0 0.0 0.00 0.00 0.00 42 1013.4
20260507022804 7 0 0.0 0.0 0.00 0.00 0.00 42 1013.3
20260507022604 7 0 0.0 0.0 0.00 0.00 0.00 43 1013.3
20260507022425 7 0 0.0 0.0 0.00 0.00 0.00 43 1013.3
20260507022225 7 0 0.0 0.0 0.00 0.00 0.00 42 1013.4
20260507022024 7 0 0.0 0.0 0.00 0.00 0.00 42 1013.4
20260507021824 7 0 0.0 0.0 0.00 0.00 0.00 42 1013.4
20260507021625 7 0 0.0 0.0 0.00 0.00 0.00 42 1013.4
20260507021425 7 0 0.0 0.0 0.00 0.00 0.00 42 1013.4
20260507021204 7 0 0.0 0.0 0.00 0.00 0.00 42 1013.4
20260507021004 7 0 0.0 0.0 0.00 0.00 0.00 41 1013.5
20260507020804 8 0 0.0 0.0 0.00 0.00 0.00 42 1013.5
20260507020604 8 0 0.0 0.0 0.00 0.00 0.00 41 1013.5
20260507020404 8 0 0.0 0.0 0.00 0.00 0.00 40 1013.5
20260507020204 8 0 0.0 0.0 0.00 0.00 0.00 40 1013.5
20260507020004 8 0 0.0 0.0 0.00 0.00 0.00 40 1013.5
20260507015804 8 0 0.0 1.6 0.00 0.00 0.00 40 1013.5
20260507015604 8 0 0.0 1.6 0.00 0.00 0.00 40 1013.5
20260507015425 8 0 0.0 1.6 0.00 0.00 0.00 40 1013.5
20260507015225 8 0 0.0 1.6 0.00 0.00 0.00 40 1013.5
20260507015025 8 0 0.0 1.6 0.00 0.00 0.00 40 1013.5
20260507014825 8 0 0.0 1.6 0.00 0.00 0.00 40 1013.5
20260507014625 8 0 0.0 1.6 0.00 0.00 0.00 39 1013.5
20260507014425 8 0 0.0 6.4 0.00 0.00 0.00 39 1013.5
20260507014204 8 0 0.0 8.0 0.00 0.00 0.00 39 1013.5
20260507014004 9 0 0.0 8.0 0.00 0.00 0.00 39 1013.6
20260507013804 9 165 1.6 11.3 0.00 0.00 0.00 38 1013.6
20260507013625 9 149 3.2 11.3 0.00 0.00 0.00 38 1013.5
20260507013425 9 150 4.8 11.3 0.00 0.00 0.00 38 1013.6
20260507013225 9 152 1.6 11.3 0.00 0.00 0.00 38 1013.6
20260507013025 9 156 3.2 11.3 0.00 0.00 0.00 38 1013.5
20260507012825 9 150 6.4 11.3 0.00 0.00 0.00 37 1013.5
20260507012625 10 148 6.4 9.7 0.00 0.00 0.00 37 1013.5
20260507012404 10 145 6.4 9.7 0.00 0.00 0.00 37 1013.5
20260507012204 10 150 6.4 9.7 0.00 0.00 0.00 37 1013.5
20260507012004 10 144 3.2 9.7 0.00 0.00 0.00 38 1013.6
20260507011804 10 145 4.8 11.3 0.00 0.00 0.00 37 1013.5
20260507011607 10 147 6.4 11.3 0.00 0.00 0.00 37 1013.5
20260507011404 10 143 4.8 11.3 0.00 0.00 0.00 37 1013.5
20260507011207 10 125 4.8 11.3 0.00 0.00 0.00 37 1013.4
20260507011004 10 130 6.4 11.3 0.00 0.00 0.00 36 1013.5
20260507010804 10 134 6.4 11.3 0.00 0.00 0.00 37 1013.5
20260507010604 10 138 4.8 16.1 0.00 0.00 0.00 37 1013.4
20260507010404 10 139 6.4 16.1 0.00 0.00 0.00 36 1013.5
20260507010204 10 143 6.4 16.1 0.00 0.00 0.00 36 1013.5
20260507010004 10 142 6.4 16.1 0.00 0.00 0.00 37 1013.6
20260507005804 10 141 6.4 16.1 0.00 0.00 0.00 36 1013.5
20260507005603 10 142 6.4 16.1 0.00 0.00 0.00 36 1013.6
20260507005404 10 145 6.4 16.1 0.00 0.00 0.00 35 1013.6
20260507005204 10 124 8.0 16.1 0.00 0.00 0.00 35 1013.6
20260507005004 10 132 8.0 16.1 0.00 0.00 0.00 34 1013.6
20260507004804 11 124 8.0 16.1 0.00 0.00 0.00 34 1013.5
20260507004607 11 123 9.7 16.1 0.00 0.00 0.00 34 1013.6
20260507004404 11 122 8.0 16.1 0.00 0.00 0.00 34 1013.5
20260507004225 11 127 9.7 16.1 0.00 0.00 0.00 34 1013.5
20260507004025 11 114 6.4 16.1 0.00 0.00 0.00 35 1013.5
20260507003825 11 117 6.4 14.5 0.00 0.00 0.00 34 1013.5
20260507003604 11 129 8.0 16.1 0.00 0.00 0.00 34 1013.6
20260507003404 11 122 8.0 16.1 0.00 0.00 0.00 33 1013.6
20260507003204 11 139 6.4 16.1 0.00 0.00 0.00 35 1013.6
20260507003004 11 135 9.7 16.1 0.00 0.00 0.00 35 1013.6
20260507002804 11 142 6.4 14.5 0.00 0.00 0.00 34 1013.6
20260507002604 11 127 4.8 11.3 0.00 0.00 0.00 33 1013.7
20260507002404 11 136 4.8 11.3 0.00 0.00 0.00 33 1013.7
20260507002204 11 134 6.4 11.3 0.00 0.00 0.00 34 1013.7
20260507002004 11 135 8.0 11.3 0.00 0.00 0.00 34 1013.7
20260507001803 11 114 6.4 11.3 0.00 0.00 0.00 34 1013.7
20260507001604 11 116 4.8 11.3 0.00 0.00 0.00 34 1013.8
20260507001404 11 121 4.8 11.3 0.00 0.00 0.00 33 1013.9
20260507001203 11 120 4.8 14.5 0.00 0.00 0.00 32 1013.8
20260507001004 11 110 3.2 14.5 0.00 0.00 0.00 32 1013.8
20260507000804 11 110 6.4 14.5 0.00 0.00 0.00 31 1013.8
20260507000604 11 109 4.8 14.5 0.00 0.00 0.00 33 1013.8
20260507000405 11 103 8.0 14.5 0.00 0.00 0.00 32 1013.8
20260507000205 11 96 6.4 14.5 0.00 0.00 0.00 33 1013.9
20260507000004 11 96 8.0 14.5 0.00 0.00 0.00 32 1013.9
20260506235804 11 113 6.4 14.5 0.00 0.00 0.00 33 1014.0
20260506235603 11 112 4.8 14.5 0.00 0.00 0.00 33 1014.0
20260506235404 12 104 8.0 14.5 0.00 0.00 0.00 31 1014.1
20260506235204 12 120 8.0 14.5 0.00 0.00 0.00 32 1014.1
20260506235004 12 115 6.4 11.3 0.00 0.00 0.00 31 1014.2
20260506234804 12 124 3.2 14.5 0.00 0.00 0.00 31 1014.2
20260506234604 12 126 4.8 14.5 0.00 0.00 0.00 32 1014.3
20260506234407 12 110 6.4 14.5 0.00 0.00 0.00 33 1014.3
20260506234204 11 122 4.8 14.5 0.00 0.00 0.00 32 1014.3
20260506234004 11 120 8.0 14.5 0.00 0.00 0.00 32 1014.3
20260506233804 11 107 8.0 14.5 0.00 0.00 0.00 32 1014.3
20260506233604 11 153 6.4 17.7 0.00 0.00 0.00 33 1014.3
20260506233404 11 165 6.4 19.3 0.00 0.00 0.00 32 1014.3
20260506233203 11 144 8.0 19.3 0.00 0.00 0.00 32 1014.3
20260506233025 11 156 3.2 19.3 0.00 0.00 0.00 31 1014.3
20260506232825 11 107 9.7 20.9 0.00 0.00 0.00 31 1014.4
20260506232625 12 109 12.9 20.9 0.00 0.00 0.00 30 1014.4
20260506232404 12 134 11.3 20.9 0.00 0.00 0.00 31 1014.3
20260506232204 12 125 12.9 20.9 0.00 0.00 0.00 31 1014.3
20260506232004 12 114 11.3 20.9 0.00 0.00 0.00 31 1014.4
20260506231804 12 103 11.3 17.7 0.00 0.00 0.00 30 1014.4
20260506231604 12 110 9.7 17.7 0.00 0.00 0.00 31 1014.4
20260506231405 12 118 6.4 17.7 0.00 0.00 0.00 30 1014.4
20260506231204 12 125 6.4 22.5 0.00 0.00 0.00 32 1014.5
20260506231004 12 142 8.0 22.5 0.00 0.00 0.00 30 1014.4
20260506230807 12 119 9.7 22.5 0.00 0.00 0.00 31 1014.4
20260506230604 12 118 9.7 22.5 0.00 0.00 0.00 31 1014.5
20260506230404 12 117 11.3 22.5 0.00 0.00 0.00 32 1014.5
20260506230204 12 118 8.0 19.3 0.00 0.00 0.00 32 1014.5
20260506230025 12 110 9.7 19.3 0.00 0.00 0.00 31 1014.5
20260506225825 12 127 8.0 19.3 0.00 0.00 0.00 30 1014.4
20260506225626 12 127 11.3 19.3 0.00 0.00 0.00 31 1014.4
20260506225404 12 123 9.7 16.1 0.00 0.00 0.00 32 1014.5
20260506225204 12 83 4.8 11.3 0.00 0.00 0.00 31 1014.5
20260506225004 12 2 4.8 11.3 0.00 0.00 0.00 31 1014.5
20260506224805 12 15 6.4 16.1 0.00 0.00 0.00 30 1014.6
20260506224604 12 61 4.8 16.1 0.00 0.00 0.00 31 1014.6
20260506224403 12 74 4.8 17.7 0.00 0.00 0.00 31 1014.7
20260506224207 12 61 4.8 17.7 0.00 0.00 0.00 30 1014.7
20260506224004 12 58 6.4 17.7 0.00 0.00 0.00 30 1014.7
20260506223804 12 46 8.0 17.7 0.00 0.00 0.00 31 1014.7
20260506223604 12 53 9.7 17.7 0.00 0.00 0.00 32 1014.7
20260506223404 11 69 9.7 16.1 0.00 0.00 0.00 33 1014.8
20260506223204 11 73 6.4 16.1 0.00 0.00 0.00 32 1014.7
20260506223003 11 80 6.4 16.1 0.00 0.00 0.00 32 1014.8
20260506222804 11 95 4.8 16.1 0.00 0.00 0.00 33 1014.7
20260506222604 11 109 8.0 16.1 0.00 0.00 0.00 33 1014.7
20260506222403 11 93 4.8 16.1 0.00 0.00 0.00 35 1014.7
20260506222204 11 79 1.6 11.3 0.00 0.00 0.00 32 1014.7
20260506222004 11 94 4.8 11.3 0.00 0.00 0.00 31 1014.8
20260506221804 11 104 4.8 11.3 0.00 0.00 0.00 32 1014.9
20260506221603 11 97 6.4 11.3 0.00 0.00 0.00 33 1015.0
20260506221404 11 120 6.4 11.3 0.00 0.00 0.00 34 1015.0
20260506221225 11 136 4.8 11.3 0.00 0.00 0.00 33 1015.1
20260506221025 11 159 3.2 11.3 0.00 0.00 0.00 33 1015.1
20260506220825 11 147 6.4 11.3 0.00 0.00 0.00 33 1015.1
20260506220604 11 131 6.4 16.1 0.00 0.00 0.00 34 1015.1
20260506220404 11 121 6.4 17.7 0.00 0.00 0.00 31 1015.2
20260506220207 11 118 6.4 17.7 0.00 0.00 0.00 31 1015.2
20260506220025 11 109 4.8 17.7 0.00 0.00 0.00 33 1015.3
20260506215826 11 106 8.0 17.7 0.00 0.00 0.00 32 1015.3
20260506215625 11 112 8.0 17.7 0.00 0.00 0.00 31 1015.4
20260506215403 11 100 11.3 17.7 0.00 0.00 0.00 32 1015.4
20260506215204 11 105 11.3 17.7 0.00 0.00 0.00 32 1015.4
20260506215004 11 132 3.2 17.7 0.00 0.00 0.00 32 1015.5
20260506214804 11 106 3.2 19.3 0.00 0.00 0.00 32 1015.5
20260506214603 11 18 1.6 19.3 0.00 0.00 0.00 32 1015.5
20260506214403 11 94 3.2 19.3 0.00 0.00 0.00 30 1015.5
20260506214225 12 79 9.7 19.3 0.00 0.00 0.00 30 1015.5
20260506214025 12 88 11.3 19.3 0.00 0.00 0.00 31 1015.6
20260506213828 12 113 4.8 11.3 0.00 0.00 0.00 30 1015.6
20260506213604 12 225 3.2 9.7 0.00 0.00 0.00 30 1015.6
20260506213404 12 177 3.2 16.1 0.00 0.00 0.00 30 1015.7
20260506213204 12 97 6.4 17.7 0.00 0.00 0.00 29 1015.7
20260506213003 12 123 4.8 20.9 0.00 0.00 0.00 30 1015.7
20260506212804 12 92 4.8 20.9 0.00 0.00 0.00 30 1015.8
20260506212604 12 86 9.7 20.9 0.00 0.00 0.00 31 1015.9
20260506212404 12 110 9.7 20.9 0.00 0.00 0.00 31 1015.8
20260506212204 12 95 9.7 20.9 0.00 0.00 0.00 31 1015.9
20260506212007 12 75 11.3 22.5 0.00 0.00 0.00 31 1015.9
20260506211803 12 77 6.4 22.5 0.00 0.00 0.00 31 1015.9
20260506211604 12 75 9.7 22.5 0.00 0.00 0.00 31 1015.9
20260506211403 12 108 8.0 22.5 0.00 0.00 0.00 31 1016.0
20260506211204 12 118 9.7 22.5 0.00 0.00 0.00 32 1016.0
20260506211004 12 46 6.4 19.3 0.00 0.00 0.00 31 1016.1
20260506210804 12 46 8.0 22.5 0.00 0.00 0.00 31 1016.1
20260506210603 12 99 8.0 22.5 0.00 0.00 0.00 31 1016.2
20260506210404 12 87 9.7 22.5 0.00 0.00 0.00 31 1016.1
20260506210204 12 80 9.7 22.5 0.00 0.00 0.00 32 1016.2
20260506210008 12 70 9.7 22.5 0.00 0.00 0.00 33 1016.2
20260506205804 11 77 14.5 22.5 0.00 0.00 0.00 33 1016.2
20260506205604 11 80 9.7 19.3 0.00 0.00 0.00 34 1016.3
20260506205404 11 117 3.2 19.3 0.00 0.00 0.00 32 1016.3
20260506205205 11 130 9.7 19.3 0.00 0.00 0.00 33 1016.3
20260506205005 11 110 8.0 19.3 0.00 0.00 0.00 31 1016.3
20260506204803 11 95 8.0 19.3 0.00 0.00 0.00 32 1016.4
20260506204604 11 84 12.9 19.3 0.00 0.00 0.00 34 1016.5
20260506204404 11 61 4.8 16.1 0.00 0.00 0.00 33 1016.5
20260506204224 11 66 9.7 16.1 0.00 0.00 0.00 33 1016.6
20260506204025 11 57 6.4 19.3 0.00 0.00 0.00 32 1016.5
20260506203825 11 74 8.0 19.3 0.00 0.00 0.00 33 1016.5
20260506203604 11 76 8.0 19.3 0.00 0.00 0.00 32 1016.6
20260506203404 11 117 11.3 22.5 0.00 0.00 0.00 33 1016.6
20260506203204 11 91 4.8 22.5 0.00 0.00 0.00 33 1016.6
20260506203004 11 99 8.0 22.5 0.00 0.00 0.00 32 1016.6
20260506202804 11 72 14.5 22.5 0.00 0.00 0.00 33 1016.7
20260506202604 11 101 8.0 22.5 0.00 0.00 0.00 32 1016.7
20260506202425 11 223 4.8 17.7 0.00 0.00 0.00 31 1016.7
20260506202225 11 187 6.4 19.3 0.00 0.00 0.00 32 1016.7
20260506202025 11 109 8.0 19.3 0.00 0.00 0.00 32 1016.8
20260506201825 11 62 8.0 19.3 0.00 0.00 0.00 32 1016.8
20260506201624 11 91 9.7 19.3 0.00 0.00 0.00 34 1016.8
20260506201424 11 79 6.4 22.5 0.00 0.00 0.00 33 1016.9
20260506201203 11 74 6.4 22.5 0.00 0.00 0.00 32 1016.8
20260506201003 11 57 11.3 22.5 0.00 0.00 0.00 32 1016.8
20260506200803 11 67 12.9 22.5 0.00 0.00 0.00 33 1016.8
20260506200603 11 108 12.9 22.5 0.00 0.00 0.00 32 1016.8
20260506200404 11 114 11.3 24.1 0.00 0.00 0.00 32 1016.8
20260506200204 11 132 12.9 24.1 0.00 0.00 0.00 33 1017.0
20260506200004 11 109 11.3 24.1 0.00 0.00 0.00 33 1016.9
20260506195804 11 76 4.8 24.1 0.00 0.00 0.00 32 1017.0
20260506195604 12 94 14.5 24.1 0.00 0.00 0.00 32 1017.0
20260506195404 12 68 12.9 24.1 0.00 0.00 0.00 31 1017.1
20260506195204 11 109 11.3 22.5 0.00 0.00 0.00 34 1017.1
20260506195004 11 72 11.3 24.1 0.00 0.00 0.00 33 1017.1
20260506194803 11 75 9.7 24.1 0.00 0.00 0.00 35 1017.1
20260506194604 11 44 4.8 24.1 0.00 0.00 0.00 33 1017.1
20260506194404 11 110 11.3 24.1 0.00 0.00 0.00 33 1017.2
20260506194204 11 82 16.1 24.1 0.00 0.00 0.00 35 1017.1
20260506194004 11 71 14.5 22.5 0.00 0.00 0.00 34 1017.2
20260506193804 11 87 9.7 22.5 0.00 0.00 0.00 34 1017.2
20260506193604 11 101 6.4 22.5 0.00 0.00 0.00 34 1017.2
20260506193404 11 98 9.7 22.5 0.00 0.00 0.00 32 1017.2
20260506193204 11 81 8.0 22.5 0.00 0.00 0.00 33 1017.3
20260506193004 11 80 12.9 22.5 0.00 0.00 0.00 32 1017.2
20260506192804 11 64 14.5 20.9 0.00 0.00 0.00 33 1017.2
20260506192604 11 79 9.7 20.9 0.00 0.00 0.00 32 1017.3
20260506192404 11 68 11.3 20.9 0.00 0.00 0.00 32 1017.3
20260506192203 11 81 12.9 20.9 0.00 0.00 0.00 34 1017.2
20260506192004 11 126 8.0 19.3 0.00 0.00 0.00 33 1017.3
20260506191804 11 104 11.3 22.5 0.00 0.00 0.00 33 1017.3
20260506191603 11 99 11.3 25.7 0.00 0.00 0.00 33 1017.4
20260506191404 11 63 6.4 25.7 0.00 0.00 0.00 33 1017.5
20260506191204 11 92 12.9 25.7 0.00 0.00 0.00 35 1017.4
20260506191004 11 85 9.7 25.7 0.00 0.00 0.00 34 1017.4
20260506190804 11 72 16.1 25.7 0.00 0.00 0.00 35 1017.5
20260506190604 11 57 16.1 27.4 0.00 0.00 0.00 34 1017.5
20260506190404 11 64 12.9 27.4 0.00 0.00 0.00 34 1017.6
20260506190204 10 79 12.9 27.4 0.00 0.00 0.00 34 1017.6
20260506190005 11 67 12.9 27.4 0.00 0.00 0.00 32 1017.6
20260506185804 11 64 14.5 27.4 0.00 0.00 0.00 31 1017.6
20260506185604 11 53 12.9 25.7 0.00 0.00 0.00 32 1017.6
20260506185404 11 42 14.5 25.7 0.00 0.00 0.00 33 1017.6
20260506185204 11 66 12.9 25.7 0.00 0.00 0.00 34 1017.6
20260506185004 11 71 12.9 25.7 0.00 0.00 0.00 35 1017.6
20260506184804 11 54 17.7 25.7 0.00 0.00 0.00 34 1017.6
20260506184603 11 76 14.5 24.1 0.00 0.00 0.00 34 1017.6
20260506184404 11 75 8.0 19.3 0.00 0.00 0.00 34 1017.7
20260506184203 11 9 9.7 19.3 0.00 0.00 0.00 34 1017.7
20260506184004 10 67 9.7 19.3 0.00 0.00 0.00 37 1017.8
20260506183804 10 62 11.3 19.3 0.00 0.00 0.00 33 1017.7
20260506183604 10 27 4.8 17.7 0.00 0.00 0.00 33 1017.8
20260506183404 10 16 9.7 17.7 0.00 0.00 0.00 33 1017.9
20260506183204 10 15 4.8 16.1 0.00 0.00 0.00 32 1017.9
20260506183005 10 26 8.0 17.7 0.00 0.00 0.00 32 1017.9
20260506182804 10 65 9.7 17.7 0.00 0.00 0.00 33 1017.9
20260506182604 10 50 8.0 20.9 0.00 0.00 0.00 36 1018.0
20260506182424 10 357 4.8 20.9 0.00 0.00 0.00 34 1018.0
20260506182225 10 6 9.7 20.9 0.00 0.00 0.00 33 1018.0
20260506182025 10 359 9.7 20.9 0.00 0.00 0.00 34 1018.0
20260506181804 10 347 12.9 20.9 0.00 0.00 0.00 33 1018.0
20260506181603 10 94 8.0 17.7 0.00 0.00 0.00 35 1018.1
20260506181404 10 22 4.8 17.7 0.00 0.00 0.00 33 1018.1
20260506181204 10 49 8.0 17.7 0.00 0.00 0.00 33 1018.2
20260506181004 10 77 8.0 17.7 0.00 0.00 0.00 34 1018.2
20260506180804 10 62 9.7 17.7 0.00 0.00 0.00 32 1018.3
20260506180604 10 66 9.7 17.7 0.00 0.00 0.00 34 1018.3
20260506180404 10 48 6.4 19.3 0.00 0.00 0.00 33 1018.3
20260506180203 10 26 4.8 19.3 0.00 0.00 0.00 34 1018.4
20260506180005 10 7 9.7 19.3 0.00 0.00 0.00 33 1018.4
20260506175804 10 335 12.9 19.3 0.00 0.00 0.00 34 1018.4
20260506175604 10 32 11.3 19.3 0.00 0.00 0.00 33 1018.5
20260506175404 10 34 6.4 22.5 0.00 0.00 0.00 36 1018.6
20260506175203 10 78 6.4 32.2 0.00 0.00 0.00 35 1018.6
20260506175004 10 28 8.0 32.2 0.00 0.00 0.00 34 1018.6
20260506174825 10 35 8.0 32.2 0.00 0.00 0.00 35 1018.6
20260506174625 10 29 14.5 32.2 0.00 0.00 0.00 34 1018.6
20260506174425 10 38 19.3 32.2 0.00 0.00 0.00 34 1018.6
20260506174225 10 60 11.3 17.7 0.00 0.00 0.00 35 1018.7
20260506174025 10 49 9.7 17.7 0.00 0.00 0.00 36 1018.6
20260506173825 9 42 8.0 35.4 0.00 0.00 0.00 35 1018.8
20260506173604 9 52 9.7 35.4 0.00 0.00 0.00 37 1018.8
20260506173404 9 46 4.8 35.4 0.00 0.00 0.00 35 1018.8
20260506173204 9 28 4.8 35.4 0.00 0.00 0.00 34 1018.8
20260506173024 8 20 14.5 35.4 0.00 0.00 0.00 37 1018.8
20260506172825 8 64 9.7 22.5 0.00 0.00 0.00 36 1018.9
20260506172625 8 73 9.7 22.5 0.00 0.00 0.00 34 1018.9
20260506172404 8 57 9.7 22.5 0.00 0.00 0.00 35 1018.9
20260506172204 8 30 12.9 22.5 0.00 0.00 0.00 35 1019.0
20260506172004 8 14 11.3 20.9 0.00 0.00 0.00 35 1019.0
20260506171803 8 357 11.3 20.9 0.00 0.00 0.00 35 1019.1
20260506171604 8 15 14.5 20.9 0.00 0.00 0.00 35 1019.1
20260506171404 8 7 12.9 20.9 0.00 0.00 0.00 36 1019.0
20260506171204 8 17 11.3 25.7 0.00 0.00 0.00 36 1019.1
20260506171004 8 358 9.7 25.7 0.00 0.00 0.00 37 1019.2
20260506170804 8 24 9.7 25.7 0.00 0.00 0.00 35 1019.2
20260506170604 8 9 12.9 25.7 0.00 0.00 0.00 34 1019.1
20260506170408 8 343 17.7 25.7 0.00 0.00 0.00 35 1019.1
20260506170204 8 14 9.7 24.1 0.00 0.00 0.00 35 1019.2
20260506170004 8 11 11.3 24.1 0.00 0.00 0.00 35 1019.2
20260506165804 8 352 14.5 25.7 0.00 0.00 0.00 37 1019.1
20260506165604 8 8 11.3 29.0 0.00 0.00 0.00 37 1019.2
20260506165403 8 17 8.0 29.0 0.00 0.00 0.00 35 1019.2
20260506165205 7 350 14.5 29.0 0.00 0.00 0.00 36 1019.2
20260506165007 7 338 14.5 29.0 0.00 0.00 0.00 36 1019.3
20260506164804 7 2 12.9 29.0 0.00 0.00 0.00 36 1019.3
20260506164603 7 9 14.5 27.4 0.00 0.00 0.00 36 1019.3
20260506164403 7 345 12.9 27.4 0.00 0.00 0.00 36 1019.4
20260506164204 7 354 9.7 27.4 0.00 0.00 0.00 36 1019.4
20260506164004 7 13 16.1 27.4 0.00 0.00 0.00 35 1019.4
20260506163804 7 345 12.9 22.5 0.00 0.00 0.00 36 1019.4
20260506163604 8 358 11.3 33.8 0.00 0.00 0.00 35 1019.3
20260506163404 8 339 14.5 33.8 0.00 0.00 0.00 35 1019.4
20260506163205 8 345 12.9 33.8 0.00 0.00 0.00 35 1019.4
20260506163004 8 316 16.1 33.8 0.00 0.00 0.00 37 1019.4
20260506162804 7 32 17.7 33.8 0.00 0.00 0.00 37 1019.4
20260506162604 7 358 8.0 25.7 0.00 0.00 0.00 36 1019.5
20260506162407 7 337 12.9 25.7 0.00 0.00 0.00 36 1019.5
20260506162203 7 350 12.9 25.7 0.00 0.00 0.00 36 1019.5
20260506162004 7 7 12.9 22.5 0.00 0.00 0.00 36 1019.5
20260506161804 7 25 14.5 27.4 0.00 0.00 0.00 37 1019.7
20260506161604 7 48 9.7 27.4 0.00 0.00 0.00 38 1019.6
20260506161405 7 24 11.3 27.4 0.00 0.00 0.00 37 1019.6
20260506161203 7 360 11.3 27.4 0.00 0.00 0.00 36 1019.6
20260506161004 7 16 14.5 27.4 0.00 0.00 0.00 37 1019.7
20260506160804 7 12 9.7 24.1 0.00 0.00 0.00 37 1019.6
20260506160604 7 18 14.5 24.1 0.00 0.00 0.00 36 1019.6
20260506160404 7 12 9.7 20.9 0.00 0.00 0.00 37 1019.7
20260506160204 7 347 12.9 20.9 0.00 0.00 0.00 36 1019.7
20260506160005 7 341 11.3 20.9 0.00 0.00 0.00 36 1019.8
20260506155804 7 357 12.9 20.9 0.00 0.00 0.00 36 1019.8
20260506155604 7 342 12.9 20.9 0.00 0.00 0.00 36 1019.8
20260506155403 7 11 4.8 20.9 0.00 0.00 0.00 38 1019.8
20260506155204 7 334 11.3 20.9 0.00 0.00 0.00 36 1019.8
20260506155004 7 318 12.9 19.3 0.00 0.00 0.00 37 1019.8
20260506154804 7 341 9.7 22.5 0.00 0.00 0.00 38 1019.9
20260506154603 7 344 11.3 22.5 0.00 0.00 0.00 38 1019.8
20260506154404 7 338 9.7 22.5 0.00 0.00 0.00 39 1019.9
20260506154204 6 5 9.7 22.5 0.00 0.00 0.00 38 1019.9
20260506154004 6 20 12.9 22.5 0.00 0.00 0.00 37 1019.9
20260506153804 6 349 6.4 22.5 0.00 0.00 0.00 37 1019.9
20260506153604 6 357 12.9 22.5 0.00 0.00 0.00 36 1020.0
20260506153404 6 5 11.3 22.5 0.00 0.00 0.00 37 1020.0
20260506153204 6 359 12.9 22.5 0.00 0.00 0.00 37 1020.0
20260506153004 6 341 9.7 22.5 0.00 0.00 0.00 37 1019.9
20260506152805 6 344 11.3 22.5 0.00 0.00 0.00 37 1020.0
20260506152604 6 7 12.9 22.5 0.00 0.00 0.00 38 1020.0
20260506152424 6 343 11.3 22.5 0.00 0.00 0.00 38 1020.0
20260506152225 6 290 6.4 22.5 0.00 0.00 0.00 37 1020.0
20260506152025 6 295 9.7 22.5 0.00 0.00 0.00 38 1020.0
20260506151804 6 337 9.7 22.5 0.00 0.00 0.00 38 1020.1
20260506151604 6 7 14.5 22.5 0.00 0.00 0.00 37 1020.0
20260506151407 6 3 11.3 20.9 0.00 0.00 0.00 38 1020.1
20260506151203 6 335 9.7 20.9 0.00 0.00 0.00 39 1020.2
20260506151004 6 325 9.7 20.9 0.00 0.00 0.00 39 1020.1
20260506150804 6 344 11.3 20.9 0.00 0.00 0.00 38 1020.1
20260506150604 6 359 12.9 20.9 0.00 0.00 0.00 37 1020.1
20260506150404 6 25 11.3 25.7 0.00 0.00 0.00 38 1020.1
20260506150203 6 20 11.3 25.7 0.00 0.00 0.00 38 1020.1
20260506150004 6 350 8.0 25.7 0.00 0.00 0.00 38 1020.1
20260506145804 6 342 11.3 25.7 0.00 0.00 0.00 38 1020.2
20260506145604 6 349 14.5 25.7 0.00 0.00 0.00 39 1020.2
20260506145404 6 339 14.5 24.1 0.00 0.00 0.00 38 1020.2
20260506145204 6 341 11.3 20.9 0.00 0.00 0.00 39 1020.3
20260506145007 5 331 12.9 20.9 0.00 0.00 0.00 38 1020.3
20260506144825 5 322 11.3 20.9 0.00 0.00 0.00 40 1020.3